Temperature
22 20 19 20 20 21 21 21 20 21 21 21 20 19 19 20 20 19 19 19 20 20 20 19 19 19 19 19 18 18 18 17 17 17 17 17 17 16 16 16 16 16 16 16
19 20 21 22 22 22 21 21 20 21 22 21 19 19 19 19 19 19 19 19 19 19 19 19 19 19 19 18 18 18 17 17 17 17 17 17 16 16 16 16 16 16 16 16
20 21 23 23 22 22 21 21 21 21 21 20 20 19 18 19 20 20 20 20 20 19 19 19 19 19 18 18 18 18 17 17 17 17 16 16 16 16 16 16 16 16 16 16
21 22 23 22 22 22 21 22 22 21 19 18 19 17 18 18 18 18 19 19 19 19 19 19 19 18 18 18 18 18 17 17 17 17 16 16 16 16 16 16 16 16 15 15
21 22 22 22 22 22 21 22 21 21 20 18 18 17 17 18 18 18 18 19 19 19 19 19 19 18 18 18 18 17 17 17 17 16 16 16 16 16 16 15 15 15 15 15
21 22 22 22 23 22 22 20 19 17 17 18 18 18 18 17 18 18 18 19 19 19 19 19 18 18 18 18 17 17 17 17 17 16 16 16 16 16 16 15 15 15 15 15
21 21 22 23 22 21 20 18 17 17 16 17 18 18 18 18 19 19 18 18 18 18 18 18 18 18 18 17 17 17 17 17 16 16 16 16 16 16 15 15 15 15 15 15
19 19 21 22 22 21 20 18 17 17 17 17 18 18 18 19 19 19 19 18 18 18 18 18 18 18 17 17 17 16 16 16 16 16 16 16 15 15 15 15 15 15 15 15
19 19 21 22 22 21 20 18 18 16 17 17 17 18 19 18 18 18 18 17 17 17 17 17 17 17 17 17 17 16 16 16 16 16 16 15 15 15 15 15 15 15 14 14
20 19 20 21 22 21 20 19 16 17 17 16 17 17 17 18 17 17 16 17 17 17 17 17 17 17 17 17 16 16 16 16 16 15 15 15 15 15 15 15 15 14 14 14
19 18 19 20 20 20 20 19 17 15 15 16 16 17 18 17 17 16 16 17 17 17 17 17 17 17 16 16 16 16 16 16 15 15 15 15 15 15 15 15 14 14 14 14
18 16 17 18 19 20 20 19 17 17 16 15 15 16 18 17 17 17 17 17 17 17 17 17 16 16 16 16 15 15 15 15 15 15 15 15 15 14 14 14 14 14 14 14
17 16 16 17 18 19 19 19 18 16 15 15 15 17 17 17 17 17 17 17 17 17 16 16 16 16 15 15 15 15 15 15 15 15 15 15 14 14 14 14 14 14 14 14
17 15 16 17 17 18 18 19 19 17 15 15 16 17 17 16 16 16 17 17 17 16 16 16 15 15 15 15 15 15 15 15 15 14 14 14 14 14 14 14 14 14 13 13
16 16 17 17 18 18 18 19 18 18 16 16 16 17 17 16 16 16 17 16 16 16 16 15 15 15 15 15 15 14 14 14 14 14 14 14 14 14 14 13 13 13 13 13
15 16 16 17 18 18 18 18 18 18 17 17 17 16 16 17 17 16 16 16 15 15 15 15 15 15 15 14 14 14 14 14 14 14 14 14 13 13 13 13 13 13 13 13
14 15 15 15 16 17 16 17 17 17 17 17 16 16 15 15 15 15 16 15 15 15 15 15 15 14 14 14 14 14 14 14 13 13 13 13 13 13 13 13 13 13 12 12
14 14 13 14 16 16 16 17 17 17 16 16 16 15 15 15 16 16 16 16 15 15 15 15 14 14 14 14 14 13 13 13 13 13 13 13 13 13 13 13 12 12 12 12
14 14 13 13 14 15 16 17 17 16 15 15 15 15 15 15 15 15 15 15 15 15 15 14 14 14 14 14 13 13 13 13 13 13 13 13 12 12 12 12 12 12 12 12
13 13 12 12 14 14 15 16 17 16 14 15 15 14 14 14 12 13 15 15 15 15 14 14 14 14 13 13 13 13 13 13 12 12 12 12 12 12 12 12 12 12 11 11
13 12 12 12 13 13 15 16 17 15 14 15 15 15 14 14 13 15 14 14 14 14 14 14 14 13 13 13 13 13 12 12 12 12 12 12 12 12 12 12 11 11 11 11
13 12 12 11 12 13 15 15 14 14 15 15 15 15 15 15 15 14 14 14 14 14 14 13 13 13 13 13 12 12 12 12 12 12 12 12 11 11 11 11 11 11 11 11
12 12 11 12 13 14 15 15 16 16 15 15 15 14 14 14 14 14 14 13 13 13 13 13 13 13 12 12 12 12 12 12 12 11 11 11 11 11 11 11 11 11 11 11
12 12 11 11 12 14 15 15 15 15 15 15 15 14 14 14 13 13 13 13 13 13 13 12 12 12 12 12 12 12 12 11 11 11 11 11 11 11 11 11 10 10 10 10
11 12 11 11 12 13 14 15 15 15 14 14 14 14 13 13 13 13 13 12 12 12 12 12 12 12 12 12 12 11 11 11 11 11 11 11 10 10 10 10 10 10 10 10
11 11 11 11 12 12 13 14 14 14 14 14 13 13 13 13 13 12 12 12 12 12 12 11 11 11 11 11 11 11 11 11 11 11 11 11 10 10 10 10 10 10 10 10
Wind_Speed
1 3 2 6 6 5 3 1 2 4 3 3 4 4 5 5 5 6 6 6 5 4 3 4 6 7 6 5 5 4 5 4 4 3 3 3 2 1 2 2 3 4 5 6
4 2 7 5 3 1 1 1 1 2 2 2 2 3 4 4 6 8 8 7 6 5 4 4 5 5 6 5 5 5 5 4 4 3 2 2 3 2 1 1 2 2 3 4
5 6 4 1 0 1 1 3 3 2 2 2 3 3 3 2 2 4 5 6 6 8 8 6 5 5 5 5 5 6 5 5 4 4 3 3 3 3 2 1 1 1 2 4
3 3 1 1 1 1 3 4 3 2 2 2 2 1 5 4 1 3 5 5 6 6 6 5 5 5 5 5 5 5 5 5 4 5 4 4 3 2 2 1 0 1 2 4
3 2 1 1 3 2 4 3 1 1 2 1 0 3 5 2 2 4 5 6 6 6 7 6 6 6 5 4 4 4 4 4 4 5 5 5 3 2 1 1 1 1 1 2
4 3 3 4 2 1 0 5 6 5 4 1 4 4 4 4 6 5 5 5 5 5 5 5 4 4 4 3 3 3 4 3 4 4 5 5 5 4 3 2 1 1 1 1
4 3 2 1 1 4 6 6 4 5 4 4 2 2 5 4 4 5 6 5 4 4 4 4 4 4 4 4 4 4 4 3 3 4 4 5 5 5 4 3 2 2 1 1
0 4 4 1 4 3 1 7 6 3 4 4 3 2 3 2 2 5 5 5 5 4 3 4 4 4 4 4 4 4 4 3 3 3 3 4 4 4 3 3 3 2 2 2
3 4 4 2 2 5 3 2 6 6 1 1 3 2 3 3 4 4 5 5 4 3 3 3 3 3 3 3 4 4 4 3 3 3 3 4 4 4 4 3 3 2 2 2
4 2 4 3 3 1 5 5 5 4 1 2 4 2 3 3 3 3 4 5 4 3 2 2 3 3 3 3 3 2 4 4 3 3 4 3 4 4 4 3 3 3 2 2
4 3 4 3 1 3 1 2 4 4 4 4 2 5 4 7 7 6 6 6 5 4 3 2 2 2 2 1 1 1 1 2 3 3 3 3 3 4 4 4 4 3 2 3
2 5 1 5 5 3 4 4 5 4 2 4 3 6 4 4 4 5 5 4 4 4 4 3 2 2 1 1 1 1 1 2 2 3 3 3 3 3 3 3 3 3 3 3
4 5 2 6 6 4 1 1 4 5 3 3 3 5 3 2 3 3 4 3 2 3 3 2 2 2 1 1 2 2 2 2 2 2 2 3 3 3 3 3 3 3 3 3
4 4 6 7 6 3 3 3 1 4 3 4 6 6 4 1 2 2 3 3 3 3 3 2 2 2 1 1 1 1 2 2 2 2 2 2 3 4 4 3 3 3 3 3
4 2 4 5 5 3 4 5 4 4 6 7 7 6 6 5 5 4 4 3 3 3 2 2 2 2 1 1 1 0 0 1 1 1 2 2 2 2 2 3 2 2 3 3
3 2 1 3 3 3 5 6 5 5 4 5 4 4 4 3 3 3 3 4 3 3 3 3 2 2 2 2 2 1 1 1 1 1 2 2 2 2 2 2 3 3 2 2
1 2 1 3 4 4 4 4 3 2 2 4 4 5 2 1 3 4 4 4 3 3 3 3 3 3 3 3 2 2 2 1 1 1 2 2 2 2 2 2 3 3 3 2
5 3 3 1 2 4 5 3 2 2 1 0 1 1 2 3 3 2 3 4 3 3 3 3 3 3 3 2 2 2 2 1 1 2 2 2 2 3 3 2 3 3 3 3
6 6 3 2 2 5 5 3 1 2 2 2 1 0 1 2 3 3 1 2 4 4 4 4 4 4 2 2 2 2 2 2 1 2 3 3 3 3 3 3 4 3 3 3
4 5 4 3 3 5 6 4 1 3 2 3 1 2 1 4 1 4 4 2 2 2 2 2 2 2 2 2 2 2 1 2 3 3 3 3 3 3 4 4 4 3 3 4
2 2 4 4 4 6 5 4 2 3 5 3 2 2 3 3 4 4 2 2 1 1 1 1 1 2 3 2 2 2 2 3 4 3 2 3 3 4 4 3 3 3 4 3
5 4 4 4 4 7 3 2 3 5 3 1 2 2 3 2 1 1 1 1 1 0 1 0 1 2 2 2 2 2 3 4 3 2 2 3 3 3 2 2 3 3 4 3
5 7 5 6 7 5 2 4 3 4 3 2 2 1 2 1 1 1 1 1 1 1 0 0 1 1 2 1 2 3 4 2 2 1 2 3 2 2 2 3 3 3 3 3
3 1 3 2 4 3 2 1 1 3 3 3 3 2 2 2 2 2 1 1 1 1 1 1 0 1 2 2 1 3 3 2 2 2 2 2 2 2 2 2 3 3 3 4
5 2 2 3 4 2 3 2 2 2 2 2 1 2 2 2 1 1 1 1 1 1 1 1 1 1 2 2 2 2 1 1 2 2 2 2 2 3 2 2 3 4 4 5
5 5 5 7 7 4 5 5 3 3 3 3 2 0 1 2 2 1 1 2 2 1 1 1 1 2 2 1 2 2 1 1 1 2 2 2 2 2 2 2 2 3 3 4
Wind_Direction
348 75 232 231 205 203 203 180 238 242 215 155 194 226 226 198 172 173 177 178 173 181 175 147 144 137 134 135 137 137 133 131 124 121 121 115 112 98 83 86 101 113 123 133
28 263 244 234 229 212 135 136 247 285 250 167 196 247 238 188 187 182 180 181 179 162 142 139 141 138 142 145 143 142 141 142 139 144 149 144 136 124 111 82 76 105 120 133
202 239 245 184 44 68 354 180 209 242 346 36 98 342 303 254 200 187 182 179 175 167 165 163 154 154 146 145 152 153 154 148 146 141 115 97 79 69 56 53 43 24 108 115
243 254 217 100 261 177 260 233 205 195 73 276 142 227 279 254 218 204 200 186 178 170 164 162 159 162 167 169 160 152 154 150 148 141 136 142 140 148 189 188 144 39 91 115
271 252 179 218 248 199 225 250 244 205 140 339 322 153 275 214 214 225 209 191 183 178 167 166 172 174 171 162 154 151 153 155 153 148 148 147 143 158 151 124 104 75 78 110
250 240 190 212 244 185 110 37 34 45 74 316 242 166 254 224 211 208 208 193 184 179 170 165 164 153 156 152 152 149 150 167 164 151 149 152 154 151 137 142 139 110 72 86
320 308 278 164 54 4 63 71 30 8 10 263 268 154 242 241 200 175 173 170 165 161 158 155 152 151 158 161 167 165 153 170 175 159 159 166 165 161 165 170 171 155 144 146
300 287 272 220 174 185 155 131 145 195 237 282 335 216 254 281 129 130 132 128 120 132 143 155 167 166 170 170 168 163 158 175 185 177 177 175 169 165 167 168 164 173 190 197
178 256 281 249 186 147 128 159 171 152 241 284 297 307 335 39 76 95 109 115 126 139 149 159 163 167 179 188 188 180 178 183 192 190 178 177 177 168 170 173 165 182 201 194
154 240 292 302 42 19 151 151 89 103 130 291 301 266 230 215 180 152 147 151 169 171 161 167 176 178 189 198 200 184 175 182 189 184 182 186 192 184 178 169 172 179 191 182
114 147 309 347 201 225 124 105 113 128 155 163 259 275 227 198 189 176 179 176 179 183 180 177 182 177 173 149 143 159 178 168 170 182 184 182 190 190 172 171 182 185 185 182
104 123 249 270 271 217 162 168 145 153 228 175 184 265 288 197 182 164 166 172 176 175 173 176 168 135 128 141 151 167 186 178 188 188 184 188 186 174 170 187 195 186 183 186
98 105 57 342 337 359 57 169 149 139 135 169 182 258 323 86 132 153 155 159 158 149 145 146 139 138 187 191 185 189 197 199 202 187 181 168 171 176 184 191 191 192 186 181
108 121 168 200 224 254 279 286 188 140 172 221 219 237 281 265 176 169 163 163 159 151 151 154 172 188 220 189 180 172 183 187 191 189 181 183 189 191 188 183 183 190 189 178
91 154 215 228 238 239 252 256 246 223 205 207 229 226 237 224 201 186 168 151 141 153 163 175 191 209 232 283 299 118 178 167 159 177 200 216 204 188 183 179 175 174 181 183
75 161 259 284 279 287 284 276 255 250 234 219 220 252 247 221 151 134 154 155 155 181 192 196 198 201 210 226 240 229 208 216 148 180 226 213 186 182 193 202 177 165 173 179
130 131 100 268 304 348 287 269 227 230 252 195 214 244 246 137 166 176 180 175 184 198 199 199 208 211 211 215 213 220 220 206 164 218 233 210 194 196 208 203 178 179 185 179
157 142 146 228 15 244 248 272 183 142 1 89 157 240 201 201 202 191 172 168 188 206 205 212 219 220 218 212 214 217 212 197 190 215 240 231 212 211 213 186 183 196 188 182
165 151 144 147 221 272 288 295 235 169 299 335 128 56 44 76 49 344 278 192 201 210 210 210 215 218 220 216 202 170 199 209 214 225 232 233 221 210 207 200 205 203 185 184
104 117 135 150 185 236 248 278 274 102 281 305 140 128 100 83 71 273 280 258 237 227 209 205 210 202 215 232 194 164 214 219 232 232 231 231 221 212 213 215 214 202 186 193
86 99 160 184 215 257 262 285 78 146 245 277 190 163 160 182 215 238 246 266 251 238 234 208 183 206 228 222 173 175 217 235 236 232 233 235 232 228 224 216 209 194 187 184
177 176 192 167 196 251 271 106 160 213 231 194 174 174 182 215 230 202 203 232 241 305 319 243 194 239 251 201 161 188 239 243 232 220 229 243 246 236 228 202 204 194 184 188
195 190 187 187 211 246 228 186 203 173 165 174 164 200 163 164 204 213 222 227 240 237 274 293 209 263 281 236 185 212 245 238 204 194 228 239 248 238 210 194 195 196 194 201
268 171 151 221 258 265 277 257 211 164 167 181 167 157 141 162 214 222 222 263 282 287 276 306 11 310 294 281 254 230 237 220 194 206 243 241 236 246 232 211 204 204 208 212
234 193 187 238 259 295 301 254 217 189 155 141 127 146 169 159 193 226 227 245 250 267 272 259 251 253 268 276 287 278 255 208 202 219 243 243 227 219 224 224 221 217 222 218
219 195 196 232 228 214 250 257 230 188 189 181 166 198 254 187 184 202 236 246 238 258 270 273 282 273 269 266 288 291 278 207 206 242 248 240 229 212 206 220 267 263 240 244
Height
1521 1526 1530 1527 1525 1525 1526 1529 1532 1527 1521 1524 1527 1528 1525 1524 1525 1526 1526 1527 1528 1529 1530 1531 1532 1533 1534 1535 1535 1536 1536 1537 1537 1538 1538 1538 1539 1540 1540 1540 1541 1541 1541 1541
1527 1528 1521 1519 1519 1521 1524 1530 1531 1526 1520 1523 1528 1528 1524 1523 1523 1523 1524 1525 1526 1527 1529 1530 1531 1532 1533 1534 1534 1535 1535 1536 1536 1537 1537 1538 1538 1539 1539 1539 1540 1540 1540 1540
1526 1523 1517 1518 1520 1523 1525 1528 1528 1528 1523 1523 1528 1534 1528 1524 1523 1523 1524 1524 1524 1525 1527 1528 1530 1531 1532 1532 1533 1533 1534 1535 1535 1536 1536 1537 1538 1538 1538 1538 1539 1539 1539 1539
1522 1517 1517 1519 1521 1521 1528 1520 1520 1523 1531 1538 1533 1548 1534 1526 1525 1523 1523 1523 1524 1525 1526 1527 1529 1530 1530 1531 1532 1533 1533 1534 1534 1535 1535 1536 1536 1536 1537 1537 1537 1538 1538 1538
1523 1517 1518 1521 1519 1518 1521 1516 1519 1522 1529 1537 1536 1544 1539 1528 1528 1524 1522 1522 1523 1524 1525 1526 1527 1528 1529 1530 1531 1532 1533 1533 1533 1534 1534 1535 1535 1536 1536 1536 1536 1536 1537 1537
1518 1515 1515 1516 1514 1514 1515 1519 1524 1530 1536 1547 1537 1542 1541 1531 1525 1522 1520 1521 1522 1523 1524 1525 1526 1527 1528 1529 1530 1530 1531 1532 1532 1533 1533 1534 1534 1534 1534 1535 1535 1535 1535 1536
1523 1517 1514 1513 1517 1517 1519 1535 1550 1552 1557 1551 1533 1537 1536 1522 1518 1518 1519 1520 1521 1522 1523 1524 1524 1525 1526 1527 1528 1529 1529 1530 1531 1531 1532 1532 1533 1533 1533 1533 1533 1534 1534 1534
1534 1533 1517 1513 1516 1521 1523 1532 1552 1560 1560 1551 1536 1538 1530 1519 1517 1517 1518 1519 1521 1522 1523 1523 1524 1524 1525 1525 1526 1527 1528 1528 1529 1530 1530 1531 1531 1531 1532 1532 1532 1532 1533 1533
1532 1531 1515 1512 1512 1515 1524 1531 1532 1545 1547 1551 1544 1534 1525 1519 1519 1519 1519 1520 1521 1522 1522 1523 1523 1524 1524 1525 1525 1525 1526 1527 1527 1528 1528 1529 1529 1530 1530 1531 1531 1531 1531 1532
1522 1529 1519 1514 1513 1514 1517 1523 1536 1544 1554 1558 1548 1540 1536 1526 1522 1520 1520 1520 1521 1521 1522 1522 1522 1522 1523 1523 1524 1524 1524 1525 1526 1526 1527 1527 1528 1528 1529 1529 1529 1529 1530 1530
1518 1529 1527 1520 1521 1522 1521 1525 1532 1543 1547 1556 1557 1546 1521 1520 1518 1518 1519 1519 1520 1520 1520 1521 1521 1521 1522 1522 1522 1522 1522 1523 1523 1524 1525 1525 1525 1526 1527 1527 1528 1528 1528 1528
1519 1529 1534 1526 1517 1514 1518 1522 1530 1543 1545 1547 1553 1544 1516 1516 1515 1516 1517 1518 1519 1519 1519 1520 1520 1520 1520 1520 1520 1520 1520 1521 1521 1522 1523 1523 1524 1524 1525 1525 1526 1526 1526 1526
1520 1530 1541 1537 1530 1521 1520 1520 1523 1532 1541 1547 1550 1540 1517 1516 1516 1516 1516 1517 1518 1518 1518 1518 1518 1518 1518 1518 1518 1517 1518 1518 1519 1520 1520 1521 1522 1522 1523 1523 1523 1524 1524 1524
1517 1528 1536 1540 1534 1526 1524 1521 1520 1529 1541 1542 1537 1530 1521 1518 1517 1516 1516 1516 1517 1517 1517 1517 1517 1517 1517 1516 1516 1516 1516 1517 1518 1518 1518 1518 1519 1520 1520 1521 1521 1521 1522 1521
1518 1528 1525 1524 1521 1521 1521 1520 1519 1523 1527 1532 1527 1524 1519 1516 1515 1514 1514 1515 1516 1516 1516 1516 1515 1515 1515 1515 1514 1515 1515 1515 1516 1516 1516 1516 1517 1518 1518 1518 1519 1519 1519 1519
1520 1525 1525 1524 1519 1520 1520 1517 1517 1517 1518 1520 1520 1520 1514 1513 1513 1513 1514 1514 1514 1514 1514 1514 1514 1514 1513 1513 1513 1513 1513 1513 1513 1513 1514 1514 1514 1515 1515 1516 1516 1516 1517 1517
1523 1526 1530 1532 1524 1522 1526 1518 1516 1517 1515 1516 1520 1518 1513 1513 1512 1512 1512 1512 1512 1512 1512 1512 1512 1512 1511 1511 1511 1510 1511 1511 1510 1510 1510 1511 1511 1512 1512 1513 1513 1513 1514 1514
1521 1526 1533 1534 1530 1535 1524 1512 1511 1513 1514 1513 1513 1512 1511 1511 1510 1510 1510 1510 1510 1510 1510 1510 1510 1509 1509 1509 1509 1509 1508 1508 1508 1507 1507 1508 1508 1509 1509 1510 1510 1510 1511 1511
1514 1522 1531 1537 1537 1531 1519 1512 1511 1513 1516 1512 1512 1511 1510 1510 1510 1510 1510 1509 1509 1508 1508 1508 1508 1507 1507 1507 1506 1506 1506 1505 1505 1504 1504 1505 1505 1505 1506 1506 1507 1507 1508 1508
1514 1518 1529 1534 1535 1535 1521 1510 1507 1511 1518 1512 1510 1510 1510 1509 1514 1511 1509 1508 1507 1507 1506 1506 1505 1505 1504 1504 1503 1503 1502 1502 1502 1502 1502 1502 1502 1502 1502 1503 1503 1504 1504 1505
1521 1524 1529 1532 1534 1526 1513 1508 1508 1521 1519 1510 1509 1508 1509 1509 1510 1509 1507 1506 1506 1505 1505 1504 1503 1502 1501 1500 1500 1499 1499 1499 1499 1499 1499 1499 1499 1499 1499 1500 1500 1501 1501 1502
1521 1525 1528 1530 1533 1527 1509 1508 1512 1512 1509 1508 1507 1507 1507 1506 1506 1506 1505 1504 1504 1503 1502 1502 1501 1500 1499 1498 1497 1497 1496 1496 1496 1496 1496 1496 1496 1496 1496 1496 1497 1497 1498 1498
1515 1515 1517 1519 1518 1509 1506 1506 1506 1506 1506 1506 1505 1505 1505 1505 1504 1504 1503 1502 1501 1501 1500 1499 1498 1497 1497 1496 1495 1494 1494 1494 1494 1493 1493 1493 1493 1493 1493 1493 1493 1494 1494 1495
1510 1508 1511 1512 1509 1506 1505 1504 1504 1504 1504 1504 1504 1504 1503 1502 1502 1501 1501 1500 1499 1499 1498 1497 1496 1495 1494 1494 1493 1493 1492 1491 1491 1490 1490 1490 1489 1490 1490 1490 1490 1490 1491 1491
1507 1507 1509 1509 1506 1505 1503 1503 1503 1502 1502 1502 1502 1501 1501 1500 1499 1499 1498 1498 1497 1497 1496 1495 1494 1493 1492 1491 1491 1490 1490 1489 1488 1487 1487 1487 1486 1486 1486 1486 1486 1487 1487 1488
1502 1504 1506 1505 1502 1502 1501 1501 1500 1500 1499 1499 1498 1498 1498 1498 1497 1497 1496 1496 1496 1495 1493 1492 1491 1490 1489 1489 1488 1488 1487 1486 1485 1484 1484 1484 1483 1483 1483 1483 1483 1483 1484 1484